#timestamp,LO_Frequency,Hit,StdDev 
1503194415.2,286047002.5,N,1.7
1503194435.0,286047002.0,N,1.8
1503194435.9,286047002.0,N,1.8
1503194455.8,286047002.6,N,1.9
1503194475.6,286047002.6,N,1.9
1503194495.4,286047002.0,N,1.9
1503194515.3,286047001.7,N,1.9
1503194535.1,286047001.3,N,1.8
1503194555.9,286047004.2,N,2.0
1503194575.7,286047003.5,N,2.0
1503194595.5,286047004.4,N,2.1
1503194615.4,286047004.2,N,2.2
1503194635.2,286047003.4,N,2.2
1503194655.1,286047003.8,N,2.2
1503194656.0,286047003.8,N,2.2
1503194675.8,286047003.0,N,2.2
1503194695.6,286047003.2,N,2.0
1503194715.5,286047003.4,N,1.8
1503194735.3,286047005.9,Y,0.0
1503194755.2,286047001.8,P,0.0
1503194775.0,286047001.3,P,0.2
1503194775.9,286047001.3,P,0.2
1503194795.8,286047001.3,Y,0.0
1503194815.6,286046999.9,P,0.8
1503194835.4,286047000.2,N,0.7
1503194855.3,286047000.1,N,0.6
1503194875.1,286047000.2,N,0.6
1503194895.9,286047002.4,Y,0.0
1503194915.7,286046999.7,P,0.3
1503194935.5,286047002.6,P,1.2
1503194955.4,286047002.6,N,1.3
1503194975.2,286047001.6,N,1.2
1503194995.0,286047004.4,Y,0.0
1503194996.0,286047004.4,P,1.5
1503195015.8,286046999.8,N,1.9
1503195035.6,286046999.8,N,1.9
1503195055.5,286047002.7,N,1.8
1503195075.3,286046999.7,N,1.8
1503195095.1,286047002.3,N,1.7
1503195115.9,286046999.8,N,1.7
1503195135.7,286046999.8,N,1.6
1503195155.6,286047002.7,N,1.6
1503195175.4,286047002.0,N,1.6
1503195195.2,286047000.2,N,1.5
1503195215.1,286046999.8,N,1.5
1503195216.0,286046999.8,N,1.5
1503195235.8,286047002.8,N,1.5
1503195255.6,286046999.8,N,1.5
1503195275.5,286047002.6,N,1.5
1503195295.3,286047002.0,N,1.5
1503195315.2,286047001.3,N,1.4
1503195335.0,286047004.1,N,1.5
1503195335.9,286047004.1,N,1.6
1503195355.8,286047001.8,N,1.6
1503195375.6,286047002.6,N,1.6
1503195395.4,286047001.7,N,1.5
1503195415.3,286047001.4,N,1.5
1503195435.1,286047003.7,N,1.5
1503195455.8,286047004.1,N,1.6
1503195475.7,286047004.4,N,1.6
1503195495.5,286047003.7,N,1.6
1503195515.4,286047004.2,N,1.6
1503195535.2,286047004.1,N,1.7
1503195555.0,286047004.1,N,1.7
1503195555.9,286047004.1,N,1.7
1503195575.8,286047001.7,N,1.6
1503195595.6,286047004.4,N,1.7
1503195615.5,286047004.2,N,1.6
1503195635.3,286047003.9,N,1.6
1503195655.1,286047004.1,N,1.6
1503195675.9,286047004.1,N,1.5
1503195695.7,286047003.2,N,1.5
1503195715.5,286047003.7,N,1.5
1503195735.4,286047004.2,N,1.4
1503195755.2,286047003.2,N,1.3
1503195775.1,286047003.4,N,1.2
1503195776.0,286047003.4,N,1.2
1503195795.8,286047003.4,N,1.0
1503195815.6,286047003.0,Y,0.0
1503195835.5,286047002.5,P,0.4
1503195855.3,286046999.7,N,1.6
1503195875.2,286047002.0,N,1.4
1503195895.9,286047002.8,N,1.3
1503195915.7,286047002.7,N,1.2
1503195935.6,286046999.8,N,1.4
1503195955.4,286047002.3,N,1.3
1503195975.3,286047002.8,N,1.3
1503195995.1,286047002.6,N,1.2
1503195996.0,286047002.6,N,1.2
1503196015.8,286047002.4,N,1.1
1503196035.7,286047002.3,N,1.1
1503196055.5,286047002.4,N,1.0
1503196075.3,286047002.1,N,1.0
1503196095.2,286047001.9,N,1.0
1503196115.0,286047002.0,N,0.9
1503196115.9,286047002.0,N,0.9
1503196135.8,286047001.8,N,0.9
1503196155.6,286047002.1,N,0.9
1503196175.4,286047002.0,N,0.8
1503196195.3,286047001.6,N,0.8
1503196215.1,286047001.6,N,0.8
1503196235.9,286047002.1,N,0.8
1503196255.7,286047002.4,N,0.8
1503196275.5,286047002.2,N,0.8
1503196295.4,286047002.3,N,0.8
1503196315.2,286047001.6,N,0.8
1503196335.0,286047002.0,N,0.7
1503196335.9,286047002.0,N,0.7
1503196355.8,286047002.2,N,0.7
1503196375.6,286047002.0,N,0.7
1503196395.5,286047002.4,Y,0.0
1503196415.3,286047000.4,P,0.8
1503196435.1,286047000.7,N,0.7
1503196455.9,286047000.5,N,0.6
1503196475.7,286047000.5,N,0.6
1503196495.6,286047000.6,N,0.6
1503196515.4,286047000.7,N,0.5
1503196535.2,286047000.3,N,0.5
1503196555.1,286046999.9,N,0.5
1503196556.0,286046999.9,N,0.6
1503196575.8,286047000.3,N,0.5
1503196595.7,286047000.2,N,0.5
1503196615.5,286046999.7,N,0.5
1503196635.3,286047000.5,N,0.5
1503196655.2,286047000.3,N,0.5
1503196675.0,286047000.6,N,0.5
1503196675.9,286047000.6,N,0.5
1503196695.7,286047001.0,N,0.5
1503196715.6,286047000.4,N,0.5
1503196735.4,286046999.7,N,0.5
1503196755.3,286046999.9,N,0.5
1503196775.1,286047002.3,Y,0.0
1503196795.8,286047000.4,P,0.0
1503196815.7,286047002.7,P,1.1
1503196835.5,286047000.3,N,1.0
1503196855.4,286047000.4,N,0.9
1503196875.2,286047000.5,N,0.9
1503196895.0,286047000.3,N,0.8
1503196895.9,286047000.3,N,0.8
1503196915.8,286047000.1,N,0.7
1503196935.6,286047002.8,Y,0.0
1503196955.5,286047001.1,P,0.2
1503196975.3,286046998.2,P,1.3
1503196995.1,286047001.0,N,1.2
1503197015.9,286047000.4,N,1.1
1503197035.7,286047002.3,N,1.2
1503197055.6,286047000.2,N,1.1
1503197075.4,286047000.3,N,1.1
1503197095.2,286047000.2,N,1.0
1503197115.1,286047000.0,N,1.0
1503197116.0,286047000.0,N,0.9
1503197135.8,286047000.3,N,0.9
1503197155.7,286046999.8,N,0.9
1503197175.5,286047000.1,N,0.9
1503197195.3,286047000.3,N,0.8
1503197215.2,286047001.0,N,0.8
1503197235.0,286047000.1,N,0.8
1503197235.9,286047000.1,N,0.8
1503197255.7,286047000.2,N,0.8
1503197275.6,286047002.4,Y,0.0
1503197295.4,286046999.8,P,0.3
1503197315.3,286046999.9,N,0.2
1503197335.1,286047000.5,N,0.3
1503197355.9,286047000.6,N,0.3
1503197375.7,286047000.5,N,0.3
1503197395.5,286047000.3,N,0.3
1503197415.4,286047000.4,N,0.3
1503197435.2,286046999.9,N,0.3
1503197455.1,286047000.5,N,0.3
1503197456.0,286047000.5,N,0.3
1503197475.8,286047000.4,N,0.3
1503197495.6,286047000.9,Y,0.0
1503197515.5,286047000.5,P,0.1
1503197535.3,286047000.2,N,0.1
1503197555.2,286047000.9,P,0.3
1503197575.9,286047000.3,N,0.2
1503197595.7,286047000.6,N,0.2
1503197615.6,286046999.8,N,0.3
1503197635.4,286047000.2,N,0.3
1503197655.3,286047002.2,Y,0.0
1503197675.1,286047000.6,P,0.1
1503197676.0,286047011.9,P,5.4
1503197695.8,286046999.9,N,5.0
1503197715.7,286047000.0,N,4.7
1503197735.5,286047000.4,N,4.3
1503197755.3,286046998.2,N,4.3
1503197775.2,286047001.1,N,4.0
1503197795.0,286047001.1,N,3.8
1503197795.9,286047001.1,N,3.6
1503197815.8,286046998.8,N,3.5
1503197835.6,286046998.3,N,3.4
1503197855.5,286046998.7,N,3.4
1503197875.3,286046999.4,N,3.3
1503197895.1,286046996.6,N,3.3
1503197915.9,286046996.6,N,3.3
1503197935.7,286046996.5,N,3.4
1503197955.6,286046996.6,N,3.3
1503197975.4,286046996.8,N,3.3
1503197995.2,286046997.5,N,3.3
